Selinsgrove, PA

7:58 PM EDT on May 25, 2017 (GMT -0400)
Penn Valley

Weather History for KSEG - March, 2013

Change the Weather History Date:

Monday, March 11, 2013

  Actual Average (KIPT) Record (KIPT)
Temperature  
Mean Temperature 47 °F -  
Max Temperature 55 °F 42 °F 71 °F (1977)
Min Temperature 39 °F 24 °F 4 °F (1996)
Degree Days  
Heating Degree Days 18    
Moisture  
Dew Point 38 °F    
Average Humidity 65    
Maximum Humidity 81    
Minimum Humidity 47    
Precipitation  
Precipitation 0.00 in - - ()
Sea Level Pressure  
Sea Level Pressure 30.07 in    
Wind  
Wind Speed 7 mph (South)    
Max Wind Speed 17 mph    
Max Gust Speed 25 mph    
Visibility 10 miles    
Events Rain    
Averages and records for this station are not official NWS values.
T = Trace of Precipitation, MM = Missing Value Source: NWS Daily Summary

Daily Weather History Graph

Daily Weather History Graph

Search for Another Location

Airport or City:

Trip Planner

Search our weather history database for the weather conditions in past years. The results will help you decide how hot, cold, wet, or windy it might be!

Date:

Astronomy

Mar. 11, 2013 Rise Set
Actual Time 7:25 AM EDT 7:10 PM EDT
Civil Twilight 6:57 AM EDT 7:37 PM EDT
Nautical Twilight 6:26 AM EDT 8:09 PM EDT
Astronomical Twilight 5:54 AM EDT 8:41 PM EDT
Moon 6:57 AM EDT (3/11) 7:20 PM EDT (3/11)
Length of Visible Light 12h 39m
Length of Day
11h 44m
Waning Crescent, 0% of the Moon is Illuminated
Mar 11
Waning Crescent
Mar 11
New
Mar 19
First Quarter
Mar 27
Full
Apr 3
Last Quarter

Hourly Weather History & Observations

Time (EDT) Temp. Windchill Dew Point Humidity Pressure Visibility Wind Dir Wind Speed Gust Speed Precip Events Conditions
12:53 AM 48.0 °F - 28.9 °F 48% 30.19 in 10.0 mi South 9.2 mph - N/A   Clear
1:53 AM 46.0 °F 41.9 °F 28.0 °F 50% 30.19 in 10.0 mi SSW 8.1 mph - N/A   Clear
2:53 AM 45.0 °F 40.1 °F 28.0 °F 52% 30.18 in 10.0 mi South 9.2 mph - N/A   Clear
3:53 AM 44.1 °F - 30.0 °F 58% 30.16 in 10.0 mi Calm Calm - N/A   Clear
4:53 AM 42.1 °F 39.2 °F 32.0 °F 67% 30.15 in 10.0 mi SSW 4.6 mph - N/A   Clear
5:53 AM 42.1 °F 38.4 °F 34.0 °F 73% 30.14 in 10.0 mi South 5.8 mph - N/A   Clear
6:53 AM 39.9 °F - 34.0 °F 79% 30.15 in 10.0 mi Calm Calm - N/A   Partly Cloudy
7:07 AM 39.2 °F - 33.8 °F 81% 30.14 in 10.0 mi Calm Calm - N/A   Mostly Cloudy
7:53 AM 41.0 °F - 35.1 °F 79% 30.15 in 8.0 mi Calm Calm - N/A   Mostly Cloudy
8:53 AM 43.0 °F 38.8 °F 37.0 °F 80% 30.16 in 8.0 mi SSE 6.9 mph - N/A   Mostly Cloudy
9:53 AM 45.0 °F 40.6 °F 37.9 °F 76% 30.16 in 8.0 mi SSW 8.1 mph - N/A   Scattered Clouds
10:53 AM 46.0 °F 41.4 °F 37.9 °F 73% 30.14 in 9.0 mi South 9.2 mph - N/A   Clear
11:53 AM 48.0 °F - 37.9 °F 68% 30.13 in 10.0 mi Variable 6.9 mph - N/A   Clear
12:53 PM 50.0 °F - 37.9 °F 63% 30.12 in 10.0 mi Variable 3.5 mph - N/A   Clear
1:53 PM 53.1 °F - 36.0 °F 52% 30.07 in 10.0 mi South 9.2 mph - N/A   Clear
2:53 PM 54.0 °F - 34.0 °F 47% 30.03 in 10.0 mi South 9.2 mph - N/A   Partly Cloudy
3:53 PM 55.0 °F - 35.1 °F 47% 30.01 in 10.0 mi South 12.7 mph 17.3 mph N/A   Clear
4:53 PM 55.9 °F - 37.9 °F 51% 29.98 in 10.0 mi SSE 12.7 mph - N/A   Clear
5:53 PM 55.0 °F - 39.9 °F 57% 29.97 in 10.0 mi SSE 8.1 mph 20.7 mph N/A   Clear
7:53 PM 55.0 °F - 45.0 °F 69% 29.96 in 10.0 mi South 9.2 mph 18.4 mph N/A   Overcast
8:07 PM 55.4 °F - 44.6 °F 67% 29.96 in 10.0 mi Variable 5.8 mph - 0.00 in Rain Light Rain
8:53 PM 54.0 °F - 46.0 °F 75% 29.98 in 10.0 mi South 10.4 mph - 0.00 in Rain Light Rain
9:53 PM 55.0 °F - 46.0 °F 72% 29.93 in 10.0 mi SSE 16.1 mph 25.3 mph 0.00 in   Mostly Cloudy
10:53 PM 55.0 °F - 46.0 °F 72% 29.93 in 10.0 mi South 17.3 mph 23.0 mph 0.00 in   Overcast
11:00 PM 55.4 °F - 46.4 °F 72% 29.92 in 10.0 mi South 13.8 mph 24.2 mph N/A   Overcast
11:53 PM 55.0 °F - 46.9 °F 74% 29.88 in 10.0 mi South 13.8 mph 23.0 mph 0.00 in   Overcast